Regional Weather Roundup
Issued by NWS

Home | Current Version | Previous Version | Graphics & Text | Print | Product List | Glossary On
Versions: 1 2 3 4 5 6 7 8 9 10 11 12 13 14 15 16 17 18 19 20 21 22 23 24 25 26 27 28 29 30 31 32 33 34 35 36 37 38 39 40 41 42 43 44 45 46 47 48 49 50
000
ASUS43 KLMK 290410
RWRKY
KENTUCKY REGIONAL WEATHER ROUNDUP
NATIONAL WEATHER SERVICE LOUISVILLE KY
1100 PM EST WED JAN 28 2015

NOTE "FAIR" INDICATES FEW OR NO CLOUDS BELOW 12,000 FEET
WITH NO SIGNIFICANT WEATHER AND/OR OBSTRUCTIONS TO VISIBILITY.

KYZ001>023-026-027-061>063-070>075-290500-
WESTERN AND SOUTH CENTRAL KENTUCKY

CITY           SKY/WX    TMP DP  RH WIND       PRES   REMARKS
PADUCAH        MOCLDY    45  30  55 S8        30.03S
HENDERSON      MOCLDY    39  25  56 SE17      30.03F WCI  30
OWENSBORO      MOCLDY    39  24  55 S15G22    30.06F WCI  30
HOPKINSVILLE   MOCLDY    42  27  55 SE7       30.09F
BOWLING GREEN  CLEAR     35  22  58 CALM      30.16R
GLASGOW        CLEAR     39  17  42 SE3       30.14R
$$

KYZ024-025-028>034-038-045-046-053-290500-
NORTH CENTRAL KENTUCKY

CITY           SKY/WX    TMP DP  RH WIND       PRES   REMARKS
LOUISVILLE/SDF MOCLDY    34  18  52 S8        30.14S WCI  27
LOUISVILLE/LOU PTCLDY    35  17  47 SE5       30.14F WCI  31
FORT KNOX      PTCLDY    33  15  48 SE5       30.11S WCI  28
$$

KYZ035>037-039>044-047>052-055>060-089>105-290500-
NORTHEAST KENTUCKY

CITY           SKY/WX    TMP DP  RH WIND       PRES   REMARKS
LEXINGTON      PTCLDY    32  20  61 SE10      30.15F WCI  24
COVINGTON      CLOUDY    32  19  58 SE13      30.14F WCI  22
FRANKFORT      MOCLDY    31  20  63 SE7       30.14F WCI  24
$$

KYZ054-064>069-076>088-106>120-290500-
SOUTHEAST KENTUCKY

CITY           SKY/WX    TMP DP  RH WIND       PRES   REMARKS
JACKSON        CLEAR     30  18  60 SE3       30.20F
LONDON         CLEAR     29  20  69 SE3       30.18F
SOMERSET       PTCLDY    32  18  55 SE3       30.19F
MIDDLESBORO    CLEAR     26  23  89 CALM      30.25F
MONTICELLO     CLEAR     37  17  44 S9        30.20F WCI  30
$$




USA.gov is the U.S. government's official web portal to all federal, state and local government web resources and services.